Flag for U.S.A. Weather past 2 weeks in Monticello, Kentucky, U.S.A.

Now
69 °F

Clear.


Feels Like: 69 °F
Forecast: 57 / 83 °F
Wind: No wind

Location: London-Corbin Airport-Magee Field

Current Time: Oct 1, 2014 at 9:08:53 PM

Latest Report: Oct 1, 2014 at 8:53 PM


Visibility: 10 mi

Pressure: 30.00 "Hg

Humidity: 68%

Dew point: 58 °F

Location of MonticelloLocation

Historic Weather in Monticello — Graph

°F

Monticello temperature yesterday

Maximum temperature yesterday: 83 °F (at 3:53 PM)
Minimum temperature yesterday: 56 °F (at 7:53 AM)
Average temperature yesterday: 67 °F

Past Weeks' High & Low Weather Summary

 TemperatureHumidityPressure
High83 °F (Sep 30, 3:53 PM)97% (Sep 30, 7:53 AM)30.34 "Hg (Sep 30, 7:53 AM)
Low46 °F (Sep 23, 7:53 AM)33% (Sep 24, 4:53 PM)29.85 "Hg (Sep 21, 4:53 PM)
Average66 °F72%30.09 "Hg
* Reported Sep 16 7:53 PM — Oct 1 7:53 PM, Monticello, Weather by CustomWeather, © 2014

Note: Actual official high and low records may vary slightly from our data, if they occured in-between our weather recording intervals... More about our weather records

Advertising

Monticello weather history for previous 24 hours

 ConditionsComfort  
Time TempWeatherWind HumidityBarometerVisibility
7:53 PM
Oct 1
71 °FSunny.3 mph63%29.98 "Hg10 mi
6:53 PM79 °FSunny.3 mph42%29.98 "Hg10 mi
5:53 PM81 °FSunny.6 mph37%29.97 "Hg10 mi
4:53 PM82 °FSunny.No wind37%29.97 "Hg10 mi
3:53 PM82 °FScattered clouds.5 mph37%29.97 "Hg10 mi
2:53 PM82 °FPassing clouds.5 mph35%29.98 "Hg10 mi
1:53 PM82 °FSunny.6 mph38%29.99 "Hg10 mi
12:53 PM79 °FSunny.6 mph47%30.00 "Hg10 mi
11:53 AM74 °FSunny.3 mph57%30.01 "Hg10 mi
10:53 AM68 °FSunny.No wind68%30.02 "Hg10 mi
9:53 AM62 °FSunny.No wind83%30.01 "Hg10 mi
8:53 AM57 °FFog.3 mph90%30.00 "Hg6 mi
7:53 AM53 °FFog.No wind93%29.99 "Hg5 mi
6:53 AM54 °FClear.No wind90%29.97 "Hg7 mi
5:53 AM54 °FClear.No wind90%29.95 "Hg7 mi
4:53 AM55 °FFog.No wind93%29.94 "Hg3 mi
3:53 AM56 °FFog.No wind90%29.93 "Hg3 mi
2:53 AM57 °FClear.No wind90%29.94 "Hg7 mi
1:53 AM58 °FFog.No wind90%29.93 "Hg6 mi
12:53 AM59 °FFog.No wind90%29.93 "Hg6 mi
11:53 PM
Sep 30
61 °FPassing clouds.No wind87%29.93 "Hg9 mi
10:53 PM62 °FPassing clouds.No wind86%29.93 "Hg7 mi
9:53 PM64 °FClear.No wind84%29.93 "Hg10 mi
Weather by CustomWeather, © 2014

See weather overviewHow to use our weather pages